Location: *
(47.2969°N, 10.2930°E)
Time: 23:20:53
(UTC+00:00)

SL-08 R/B - Pass Details

Date: 09 April 2020
Orbit: 951 x 1018 km, 82.9° (Epoch: 24 May)

Event Time Altitude Azimuth Distance (km) Brightness Sun altitude
Rises 20:25:56 0° 350° (N) 3,642 8.3 -22.6°
Reaches altitude 10° 20:28:25 10° 351° (N) 2,697 7.5 -22.9°
Maximum altitude 20:34:36 89° 269° (W) 971 4.4 -23.7°
Enters shadow 20:36:45 44° 174° (S) 1,310 4.8 -23.9°
